• In Netherlands
  • List of Countries
  • For 7 days
  • Water Temperature
  • Satellite Maps
  • Weather Map
  • Weather Widgets
  • user-avatar
    Login

    Hourly Weather Mazyr

    Today, 29 June, Thursday

    Time Temperature Precipitation Wind Pressure Humidity
    00:00 +18°C° 0.1 mm 3 mps 743 mmHg 77%
    01:00 +18°C° 0.1 mm 3 mps 743 mmHg 80%
    02:00 +17°C° 0 mm 2 mps 742 mmHg 85%
    03:00 +17°C° 0 mm 2 mps 742 mmHg 85%
    04:00 +18°C° 0 mm 2 mps 742 mmHg 85%
    05:00 +18°C° 0 mm 2 mps 742 mmHg 86%
    06:00 +20°C° 0 mm 3 mps 742 mmHg 78%
    07:00 +22°C° 0 mm 3 mps 742 mmHg 71%
    08:00 +25°C° 0 mm 4 mps 742 mmHg 64%
    09:00 +27°C° 0 mm 4 mps 742 mmHg 57%
    10:00 +29°C° 0 mm 4 mps 741 mmHg 51%
    11:00 +32°C° 0 mm 5 mps 741 mmHg 44%
    12:00 +33°C° 0 mm 5 mps 741 mmHg 42%
    13:00 +33°C° 0 mm 5 mps 740 mmHg 39%
    14:00 +34°C° 0 mm 5 mps 740 mmHg 36%
    15:00 +34°C° 0 mm 5 mps 740 mmHg 38%
    16:00 +34°C° 0 mm 5 mps 739 mmHg 39%
    17:00 +34°C° 0 mm 4 mps 739 mmHg 40%
    18:00 +32°C° 0 mm 4 mps 739 mmHg 47%
    19:00 +29°C° 0 mm 4 mps 739 mmHg 54%
    20:00 +27°C° 0 mm 4 mps 739 mmHg 61%
    21:00 +26°C° 0.1 mm 3 mps 739 mmHg 67%
    22:00 +25°C° 0.1 mm 3 mps 738 mmHg 73%
    23:00 +24°C° 0.1 mm 2 mps 738 mmHg 78%

    Tomorrow, 30 June, Friday

    Time Temperature Precipitation Wind Pressure Humidity
    00:00 +22°C° 0.3 mm 3 mps 738 mmHg 82%
    01:00 +21°C° 0.3 mm 3 mps 738 mmHg 87%
    02:00 +20°C° 0.3 mm 3 mps 738 mmHg 91%
    03:00 +20°C° 0.2 mm 3 mps 738 mmHg 92%
    04:00 +20°C° 0.2 mm 3 mps 738 mmHg 93%
    05:00 +20°C° 0.2 mm 2 mps 738 mmHg 95%
    06:00 +21°C° 0.1 mm 3 mps 739 mmHg 85%
    07:00 +24°C° 0.1 mm 3 mps 739 mmHg 76%
    08:00 +25°C° 0.1 mm 4 mps 739 mmHg 67%
    09:00 +27°C° 0.1 mm 4 mps 739 mmHg 59%
    10:00 +28°C° 0.1 mm 5 mps 739 mmHg 52%
    11:00 +29°C° 0.1 mm 5 mps 739 mmHg 44%
    12:00 +30°C° 0.1 mm 5 mps 739 mmHg 43%
    13:00 +30°C° 0.1 mm 5 mps 739 mmHg 41%
    14:00 +32°C° 0.1 mm 5 mps 739 mmHg 40%
    15:00 +30°C° 0 mm 5 mps 739 mmHg 42%
    16:00 +30°C° 0 mm 4 mps 739 mmHg 44%
    17:00 +29°C° 0 mm 4 mps 739 mmHg 46%
    18:00 +27°C° 0 mm 3 mps 739 mmHg 53%
    19:00 +26°C° 0 mm 3 mps 739 mmHg 60%
    20:00 +24°C° 0 mm 2 mps 740 mmHg 67%
    21:00 +23°C° 0.2 mm 2 mps 740 mmHg 71%
    22:00 +21°C° 0.2 mm 2 mps 740 mmHg 75%
    23:00 +19°C° 0.2 mm 2 mps 741 mmHg 79%

    Day after tomorrow, 1 July, Saturday

    Time Temperature Precipitation Wind Pressure Humidity
    00:00 +19°C° 0 mm 2 mps 741 mmHg 80%
    01:00 +18°C° 0 mm 2 mps 741 mmHg 81%
    02:00 +18°C° 0 mm 2 mps 742 mmHg 82%
    03:00 +18°C° 0 mm 2 mps 742 mmHg 83%
    04:00 +17°C° 0 mm 2 mps 742 mmHg 84%
    05:00 +17°C° 0 mm 2 mps 742 mmHg 84%
    06:00 +20°C° 0 mm 1 mps 742 mmHg 77%
    07:00 +22°C° 0 mm 1 mps 742 mmHg 69%
    08:00 +24°C° 0 mm 1 mps 742 mmHg 62%
    09:00 +24°C° 0.1 mm 2 mps 742 mmHg 58%
    10:00 +25°C° 0.1 mm 2 mps 742 mmHg 55%
    11:00 +26°C° 0.1 mm 2 mps 741 mmHg 51%
    12:00 +24°C° 0.8 mm 3 mps 741 mmHg 61%
    13:00 +21°C° 0.8 mm 3 mps 740 mmHg 71%
    14:00 +19°C° 0.8 mm 3 mps 740 mmHg 82%
    15:00 +18°C° 0.9 mm 3 mps 740 mmHg 85%
    16:00 +17°C° 0.9 mm 3 mps 740 mmHg 88%
    17:00 +16°C° 0.9 mm 2 mps 739 mmHg 91%
    18:00 +16°C° 0 mm 2 mps 740 mmHg 92%
    19:00 +16°C° 0 mm 1 mps 740 mmHg 93%
    20:00 +14°C° 0 mm 0 mps 740 mmHg 94%
    21:00 +15°C° 0.1 mm 1 mps 740 mmHg 94%
    22:00 +16°C° 0.1 mm 1 mps 740 mmHg 94%
    23:00 +16°C° 0.1 mm 1 mps 741 mmHg 94%

    2 July, Sunday

    Time Temperature Precipitation Wind Pressure Humidity
    00:00 +15°C° 0.2 mm 2 mps 741 mmHg 95%
    01:00 +15°C° 0.2 mm 2 mps 741 mmHg 96%
    02:00 +15°C° 0.2 mm 2 mps 741 mmHg 97%
    03:00 +15°C° 0 mm 2 mps 741 mmHg 97%
    04:00 +14°C° 0 mm 2 mps 741 mmHg 97%
    05:00 +14°C° 0 mm 2 mps 741 mmHg 97%
    06:00 +15°C° 0 mm 2 mps 741 mmHg 91%
    07:00 +17°C° 0 mm 2 mps 741 mmHg 85%
    08:00 +18°C° 0 mm 3 mps 741 mmHg 79%
    09:00 +20°C° 0 mm 3 mps 741 mmHg 69%
    10:00 +22°C° 0 mm 4 mps 741 mmHg 59%
    11:00 +25°C° 0 mm 4 mps 741 mmHg 48%
    12:00 +26°C° 0 mm 5 mps 741 mmHg 45%
    13:00 +27°C° 0 mm 5 mps 741 mmHg 42%
    14:00 +28°C° 0 mm 5 mps 740 mmHg 38%
    15:00 +27°C° 0 mm 5 mps 740 mmHg 41%
    16:00 +27°C° 0 mm 5 mps 740 mmHg 45%
    17:00 +26°C° 0 mm 5 mps 740 mmHg 48%
    18:00 +23°C° 0 mm 4 mps 740 mmHg 57%
    19:00 +21°C° 0 mm 3 mps 740 mmHg 66%
    20:00 +19°C° 0 mm 2 mps 740 mmHg 75%
    21:00 +19°C° 0 mm 2 mps 741 mmHg 79%
    22:00 +18°C° 0 mm 2 mps 741 mmHg 83%
    23:00 +17°C° 0 mm 2 mps 741 mmHg 87%

    3 July, Monday

    Time Temperature Precipitation Wind Pressure Humidity
    00:00 +16°C° 0 mm 2 mps 741 mmHg 89%
    01:00 +16°C° 0 mm 2 mps 741 mmHg 91%
    02:00 +15°C° 0 mm 2 mps 741 mmHg 94%
    03:00 +15°C° 0 mm 2 mps 742 mmHg 93%
    04:00 +16°C° 0 mm 2 mps 742 mmHg 92%
    05:00 +16°C° 0 mm 2 mps 742 mmHg 91%
    06:00 +16°C° 0 mm 3 mps 742 mmHg 84%
    07:00 +17°C° 0 mm 3 mps 742 mmHg 77%
    08:00 +18°C° 0 mm 3 mps 742 mmHg 70%
    09:00 +19°C° 0 mm 3 mps 742 mmHg 64%
    10:00 +20°C° 0 mm 4 mps 742 mmHg 58%
    11:00 +21°C° 0 mm 4 mps 742 mmHg 52%
    12:00 +22°C° 0.1 mm 4 mps 742 mmHg 52%
    13:00 +22°C° 0.1 mm 4 mps 743 mmHg 52%
    14:00 +22°C° 0.1 mm 4 mps 743 mmHg 52%
    15:00 +22°C° 0 mm 4 mps 742 mmHg 52%
    16:00 +22°C° 0 mm 3 mps 742 mmHg 53%
    17:00 +22°C° 0 mm 3 mps 742 mmHg 53%
    18:00 +20°C° 0.1 mm 3 mps 743 mmHg 63%
    19:00 +19°C° 0.1 mm 3 mps 743 mmHg 72%
    20:00 +17°C° 0.1 mm 2 mps 743 mmHg 82%
    21:00 +16°C° 0 mm 2 mps 743 mmHg 85%
    22:00 +14°C° 0 mm 3 mps 744 mmHg 88%
    23:00 +13°C° 0 mm 3 mps 744 mmHg 90%

    4 July, Tuesday

    Time Temperature Precipitation Wind Pressure Humidity
    00:00 +14°C° 0 mm 2 mps 744 mmHg 91%
    01:00 +13°C° 0 mm 2 mps 745 mmHg 91%
    02:00 +12°C° 0 mm 2 mps 745 mmHg 91%
    03:00 +12°C° 0 mm 2 mps 745 mmHg 91%
    04:00 +12°C° 0 mm 2 mps 745 mmHg 91%
    05:00 +12°C° 0 mm 2 mps 746 mmHg 91%
    06:00 +13°C° 0 mm 2 mps 746 mmHg 81%
    07:00 +15°C° 0 mm 2 mps 746 mmHg 72%
    08:00 +16°C° 0 mm 3 mps 746 mmHg 62%
    09:00 +18°C° 0 mm 3 mps 745 mmHg 57%
    10:00 +19°C° 0 mm 4 mps 745 mmHg 53%
    11:00 +21°C° 0 mm 4 mps 745 mmHg 48%
    12:00 +21°C° 0.1 mm 4 mps 745 mmHg 47%
    13:00 +22°C° 0.1 mm 4 mps 745 mmHg 46%
    14:00 +22°C° 0.1 mm 5 mps 744 mmHg 45%
    15:00 +22°C° 0.1 mm 4 mps 744 mmHg 47%
    16:00 +22°C° 0.1 mm 4 mps 744 mmHg 49%
    17:00 +21°C° 0.1 mm 4 mps 744 mmHg 51%
    18:00 +19°C° 0.1 mm 3 mps 744 mmHg 60%
    19:00 +18°C° 0.1 mm 3 mps 744 mmHg 69%
    20:00 +16°C° 0.1 mm 2 mps 744 mmHg 78%
    21:00 +15°C° 0.1 mm 2 mps 744 mmHg 83%
    22:00 +14°C° 0.1 mm 2 mps 744 mmHg 87%
    23:00 +13°C° 0.1 mm 2 mps 745 mmHg 91%
    Show more